Orbital Elements at Epoch 2459200.5 (2020-Dec-17.0) TDB
Reference: JPL 9 (heliocentric ecliptic J2000)
Element | Value | Uncertainty (1-sigma) | Units |
e | .2338343184484888 | 6.6221e-08 | |
a | 2.343242816639764 | 8.6756e-09 | au |
q | 1.795312229651488 | 1.5453e-07 | au |
i | 4.717792965922494 | 4.7487e-06 | deg |
node | 292.8657994762373 | 7.2305e-05 | deg |
peri | 46.49944387858624 | 7.276e-05 | deg |
M | 239.8533814132773 | 1.0341e-05 | deg |
tp | 2459637.753626497201 (2022-Feb-27.25362650) | 3.8737e-05 | TDB |
period | 1310.160097642462 3.59 | 7.2761e-06 1.992e-08 | d yr |
n | .2747755794484917 | 1.526e-09 | deg/d |
Q | 2.89117340362804 | 1.0704e-08 | au |
|
| | Orbit Determination Parameters
Additional Information
|